FW9606 Weather Reports


time (UTC)temp
C
wind
direction
speed
KPH
gust
KPH
rain 1hr
cm
rain 24hr
cm
rain mn
cm
humidity
%
barometer
mb
20260503054543 6 26 8.0 19.3 0.00 0.00 0.00 95 1014.6
20260503053044 6 78 4.8 17.7 0.00 0.00 0.00 95 1014.6
20260503051550 6 61 1.6 24.1 0.00 0.00 0.00 96 1014.5
20260503050050 6 43 11.3 24.1 0.00 0.00 0.00 96 1014.4
20260503044548 6 71 8.0 24.1 0.00 0.00 0.00 96 1014.4
20260503043044 6 38 14.5 25.7 0.00 0.00 0.00 96 1014.3
20260503041550 6 54 8.0 22.5 0.00 0.00 0.00 96 1014.3
20260503040051 7 67 12.9 27.4 0.00 0.00 0.00 96 1014.4
20260503034600 7 58 11.3 24.1 0.00 0.00 0.00 96 1014.3
20260503033055 7 73 3.2 20.9 0.00 0.00 0.00 97 1014.4
20260503031554 7 77 4.8 20.9 0.00 0.00 0.00 97 1014.4
20260503030050 7 96 4.8 17.7 0.00 0.00 0.00 97 1014.3
20260503024552 7 60 6.4 14.5 0.00 0.00 0.00 97 1014.4
20260503023050 7 56 6.4 24.1 0.00 0.00 0.00 96 1014.3
20260503021550 7 84 8.0 19.3 0.00 0.00 0.00 95 1014.5
20260503020056 7 82 9.7 27.4 0.00 0.00 0.00 95 1014.4
20260503014558 7 61 11.3 29.0 0.00 0.00 0.00 94 1014.5
20260503013047 7 59 4.8 14.5 0.00 0.00 0.00 94 1014.6
20260503011552 7 53 4.8 20.9 0.00 0.00 0.00 94 1014.6
20260503010051 7 38 8.0 24.1 0.00 0.00 0.00 94 1014.6
20260503004615 7 80 1.6 16.1 0.00 0.00 0.00 94 1014.6
20260503003055 8 109 9.7 17.7 0.00 0.00 0.00 95 1014.6
20260503001605 8 44 3.2 19.3 0.00 0.00 0.00 95 1014.8
20260503000054 8 59 6.4 22.5 0.00 0.00 0.00 94 1015.0
20260502234550 8 56 8.0 17.7 0.00 0.00 0.00 94 1014.9
20260502233047 8 114 6.4 19.3 0.00 0.00 0.00 93 1015.0
20260502231552 8 69 11.3 22.5 0.00 0.00 0.00 93 1014.9
20260502230046 8 107 3.2 14.5 0.00 0.00 0.00 92 1014.9
20260502224546 8 64 8.0 19.3 0.00 0.00 0.00 92 1014.9
20260502223046 8 39 6.4 17.7 0.00 0.00 0.00 92 1014.9
20260502221550 8 94 8.0 19.3 0.00 0.00 0.00 92 1015.0
20260502220046 8 52 6.4 19.3 0.00 0.00 0.00 91 1015.0
20260502214559 8 70 4.8 14.5 0.00 0.00 0.00 91 1015.1
20260502213047 8 83 8.0 16.1 0.00 0.00 0.00 91 1015.0
20260502211544 8 79 9.7 19.3 0.00 0.00 0.00 91 1015.1
20260502210046 9 68 9.7 22.5 0.00 0.00 0.00 92 1015.0
20260502204545 9 67 9.7 20.9 0.00 0.00 0.00 92 1015.1
20260502203045 9 85 3.2 14.5 0.00 0.00 0.00 92 1015.0
20260502201556 10 87 8.0 19.3 0.00 0.00 0.00 92 1015.0
20260502200047 10 117 6.4 14.5 0.00 0.00 0.00 92 1014.7
20260502194547 10 103 4.8 16.1 0.00 0.00 0.00 92 1014.6
20260502193048 10 99 4.8 14.5 0.00 0.00 0.00 92 1014.4
20260502191549 10 105 4.8 19.3 0.00 0.00 0.00 91 1014.3
20260502190055 10 69 4.8 16.1 0.00 0.00 0.00 90 1014.2
20260502184602 10 58 4.8 14.5 0.00 0.03 0.00 89 1014.2
20260502183051 10 96 4.8 16.1 0.00 0.03 0.00 87 1014.2
20260502181551 10 78 8.0 19.3 0.00 0.03 0.00 85 1014.4
20260502163056 12 32 8.0 17.7 0.00 0.03 0.00 86 1013.8
20260502161551 12 19 4.8 14.5 0.00 0.03 0.00 85 1013.7
20260502151553 15 169 0.0 20.9 0.00 0.03 0.00 75 1013.7
20260502123100 18 169 11.3 19.3 0.00 0.03 0.00 72 1013.3
20260502121551 17 0 3.2 9.7 0.00 0.03 0.00 71 1013.3
20260502114547 17 270 3.2 11.3 0.00 0.03 0.00 67 1013.5
20260502113044 17 194 4.8 14.5 0.00 0.03 0.00 75 1013.6
20260502111551 17 281 4.8 16.1 0.00 0.03 0.00 76 1013.7
20260502110056 16 269 8.0 14.5 0.00 0.03 0.00 77 1013.9
20260502104551 15 211 6.4 17.7 0.00 0.03 0.00 81 1014.0
20260502103052 15 360 4.8 14.5 0.00 0.03 0.00 82 1014.1
20260502101603 14 360 4.8 17.7 0.00 0.03 0.00 84 1014.0
20260502100114 14 257 8.0 17.7 0.00 0.03 0.00 82 1014.0
20260502070052 10 360 14.5 22.5 0.00 0.03 0.00 95 1013.6
20260502064554 10 263 14.5 20.9 0.00 0.03 0.00 96 1013.6
20260502063050 10 360 12.9 22.5 0.00 0.03 0.00 96 1013.7